Location: Austin
(30.3000°N, 97.7500°W)
Time: 23:57:55
(UTC-05:00)

Okean 1 Rocket - Pass Details

Date: 06 May 2026
Orbit: 601 x 625 km, 82.5° (Epoch: 13 May)

Event Time Altitude Azimuth Distance (km) Brightness Sun altitude
Exits shadow 22:22:11 45° 232° (SW) 832 3.7 -25.1°
Maximum altitude 22:23:06 55° 277° (W) 732 3.6 -25.3°
Drops below altitude 10° 22:27:24 10° 356° (N) 1,977 6.2 -26.0°
Sets 22:29:40 0° 1° (N) 2,889 7.1 -26.3°
